TEVEL2-9

Last updated on Thu Oct 30 2025 00:03:11 GMT+0000 (Coordinated Universal Time)

1 63237U 25052AD 25302.41907113 .00020535 00000+0 87132-3 0 9991 2 63237 97.4155 194.2190 0005186 228.9342 131.1447 15.23117299 34794
UTC large
Height (km)
Speed (km/s)
/
Latitude / Longitude
Inclination (degrees)
Orbital Period (minutes)
Azimuth
Elevation
Range (km)
Doppler Factor

Next 0 passes for location: London (51.5072 / 0.1276)

Sorry there are no passes over London.